DELTA 1 DEB, 2775

Orbit data source: Space-Track

DELTA 1 DEB, 2775 is space debris in SSO originally from a launch on Sun, 02 Oct 1966 UTC launched from the Air Force Western Test Range (AFWTR). Debris objects in space refer to the collection of defunct objects orbiting the Earth. Examples of debris include non-operational satellites, rocket bodies, and fragments generated from explosions, collisions, or faulty payload assembly.

Loading next visibility...
Identifier
2775, 1966-087D
Orbit
SSO
Country
Flag of USUS
Related business
Manufacturer
Unknown
Mission
Spacecraft
Bus & Motor
Unknown
Mass
1 kg wet, 1 kg dry
Launch date (UTC)
1966-10-02 (59 years ago)
Launch vehicle
Unknown
Launch site
Air Force Western Test Range (AFWTR)
Object type
Payload
Rocket body
Debris
Shape & HBR
Cyl + 1 Cable, 1.8 m
Radar Cross Section
3.500 m², Small (<0.1 m²)

Expand to show TLE details & history
Last TLE update: 4 days ago

TLE from 4 days ago
0 DELTA 1 DEB
1 02775U 66087D   25257.60943978 -.00000043  00000-0 -29745-5 0  9996
2 02775 100.9290 269.7782 0124589 333.2770 142.9702 12.71686714735305
Epoch: 2025-09-14T14:37Z
TLE epoch observation values (Epoch: 2025-09-14T14:37:35.596Z)
Latitude
61.02745°
Longitude
-103.13993°
Altitude
1,462.907 km
Speed
7.101 km/s
True Right ascension
07h 20m 20s
True Declination
60° 53' 41"
Sunlit
Object was in daylight at epoch
Visualization orbit readout
Latitude
Unknown
Longitude
Unknown
Altitude
Unknown
Speed
Unknown
Apparent Right ascension
Unknown
Apparent Declination
Unknown
Sunlit
N/A
Visualization observer readout
Local Sidereal Time
21:31:56
Azimuth
Unknown
Elevation
Unknown
Doppler factor
Unknown
Orbital elements
Apogee altitude
1,469.113 km
Perigee altitude
1,275.983 km
Semi-major axis
7,750.685 km
Eccentricity
0.01246
Inclination
100.929°
RAAN
269.7782°
Arg. of periapsis
333.277°
True anomaly
143.8194°
Mean anomaly
142.9702°
Eccentric anomaly
143.39585°
Mean motion
3.18078 °/min
Orbital period
113.18 mins
BSTAR
-0.0000029745
Loading maneuver chart data...
Computing Atmospheric mass density...
Loading historical data...
Loading historical data...
Loading historical data...
Loading historical data...
Loading historical data...
Loading historical data...
Loading historical data...
Other satellites on launch #87 in the year 1966 (1966-10-02 UTC)

Documentation

Showing up to 5 results
|